FW3198 Weather Reports


time (UTC)temp
C
wind
direction
speed
KPH
gust
KPH
rain 1hr
cm
rain 24hr
cm
rain mn
cm
humidity
%
barometer
mb
20260506113048 -17 0.0 0.0 0.00 0.00 0.00 1014.9
20260506111610 17 0 0.0 0.0 0.00 0.00 0.00 91 1014.9
20260506110055 17 0 0.0 0.0 0.00 0.00 0.00 91 1014.4
20260506104551 17 0 0.0 0.0 0.00 0.00 0.00 91 1014.0
20260506103049 16 0 0.0 0.0 0.00 0.00 0.00 91 1013.9
20260506101551 16 0 0.0 0.0 0.00 0.00 0.00 91 1013.8
20260506100050 16 0 0.0 0.0 0.00 0.00 0.00 91 1013.8
20260506094547 16 0 0.0 0.0 0.00 0.00 0.00 91 1013.6
20260506093059 16 0 0.0 0.0 0.00 0.00 0.00 90 1013.5
20260506091552 16 0 0.0 0.0 0.00 0.00 0.00 90 1013.6
20260506090042 16 0 0.0 0.0 0.00 0.00 0.00 89 1013.5
20260506084548 16 0 0.0 0.0 0.00 0.00 0.00 88 1013.4
20260506083107 16 0 0.0 0.0 0.00 0.00 0.00 88 1013.6
20260506081551 16 0 0.0 0.0 0.00 0.00 0.00 87 1013.8
20260506073051 16 0 0.0 0.0 0.00 0.00 0.00 85 1014.0
20260506071552 16 0 0.0 0.0 0.00 0.00 0.00 83 1014.2
20260506061547 17 0 0.0 0.0 0.00 0.00 0.00 76 1014.0
20260506044546 17 0 0.0 0.0 0.00 0.00 0.00 73 1014.3
20260506043049 17 255 0.0 0.0 0.00 0.00 0.00 71 1013.9
20260506041546 17 0 0.0 0.0 0.00 0.00 0.00 70 1014.1
20260506040050 17 0 0.0 0.0 0.00 0.00 0.00 68 1014.0
20260506034557 17 0 0.0 0.0 0.00 0.00 0.00 68 1014.6
20260506033046 17 0 0.0 0.0 0.00 0.00 0.00 69 1014.4
20260506031549 17 0 0.0 0.0 0.00 0.00 0.00 68 1014.2
20260506030052 17 0 0.0 1.6 0.00 0.00 0.00 68 1013.9
20260506024559 17 0 0.0 1.6 0.00 0.00 0.00 67 1014.0
20260506023051 18 0 0.0 1.6 0.00 0.00 0.00 67 1014.2
20260506021544 18 0 0.0 0.0 0.00 0.00 0.00 64 1014.4
20260506020105 18 0 0.0 0.0 0.00 0.00 0.00 62 1014.1
20260506014557 18 0 0.0 0.0 0.00 0.00 0.00 62 1014.1
20260506013045 19 0 0.0 0.0 0.00 0.00 0.00 60 1014.3
20260506011617 20 0 0.0 0.0 0.00 0.00 0.00 58 1014.0
20260506010047 20 0 0.0 0.0 0.00 0.00 0.00 56 1014.0
20260506004601 20 0 0.0 0.0 0.00 0.00 0.00 54 1014.1
20260506003046 21 0 0.0 0.0 0.00 0.00 0.00 53 1014.0
20260506001549 22 0 0.0 0.0 0.00 0.00 0.00 50 1013.9
20260506000114 22 0 0.0 0.0 0.00 0.00 0.00 47 1013.8
20260505234551 23 0 0.0 1.6 0.00 0.00 0.00 45 1013.8
20260505233056 23 0 0.0 1.6 0.00 0.00 0.00 45 1013.7
20260505231609 23 149 0.0 4.8 0.00 0.00 0.00 44 1013.6
20260505230104 24 162 0.0 3.2 0.00 0.00 0.00 44 1013.4
20260505224557 25 0 0.0 6.4 0.00 0.00 0.00 44 1013.2
20260505223048 26 120 0.0 3.2 0.00 0.00 0.00 43 1013.5
20260505221556 27 0 0.0 4.8 0.00 0.00 0.00 39 1013.3
20260505220048 28 228 0.0 1.6 0.00 0.00 0.00 37 1013.4
20260505214543 28 106 1.6 4.8 0.00 0.00 0.00 37 1013.5
20260505213045 28 0 0.0 1.6 0.00 0.00 0.00 38 1013.7
20260505211548 28 231 1.6 4.8 0.00 0.00 0.00 38 1013.8
20260505210049 29 115 0.0 4.8 0.00 0.00 0.00 36 1013.8
20260505204552 29 327 0.0 6.4 0.00 0.00 0.00 39 1013.8
20260505203059 28 274 0.0 4.8 0.00 0.00 0.00 39 1013.9
20260505201550 28 283 1.6 6.4 0.00 0.00 0.00 39 1014.1
20260505200049 30 155 0.0 6.4 0.00 0.00 0.00 39 1014.2
20260505194603 29 0 1.6 6.4 0.00 0.00 0.00 41 1014.3
20260505193052 28 247 0.0 4.8 0.00 0.00 0.00 39 1014.6
20260505191603 28 105 0.0 8.0 0.00 0.00 0.00 43 1014.8
20260505190051 27 269 3.2 8.0 0.00 0.00 0.00 40 1015.2
20260505184549 27 0 0.0 4.8 0.00 0.00 0.00 44 1015.1
20260505183045 26 0 0.0 6.4 0.00 0.00 0.00 45 1015.4
20260505181545 27 340 1.6 4.8 0.00 0.00 0.00 44 1016.0
20260505180049 26 257 1.6 6.4 0.00 0.00 0.00 44 1016.1
20260505174550 26 277 1.6 6.4 0.00 0.00 0.00 47 1016.3
20260505173106 26 129 0.0 8.0 0.00 0.00 0.00 45 1016.2
20260505171618 26 258 1.6 4.8 0.00 0.00 0.00 46 1016.3
20260505170052 25 229 1.6 4.8 0.00 0.00 0.00 48 1016.4
20260505164549 25 127 1.6 6.4 0.00 0.00 0.00 49 1016.3
20260505163050 25 281 3.2 4.8 0.00 0.00 0.00 48 1016.3
20260505161555 25 49 0.0 6.4 0.00 0.00 0.00 50 1016.6
20260505153055 23 137 1.6 3.2 0.00 0.00 0.00 57 1017.2
20260505151553 22 297 0.0 3.2 0.00 0.00 0.00 57 1017.4
20260505150109 23 112 0.0 1.6 0.00 0.00 0.00 56 1017.1
20260505124554 15 245 0.0 3.2 0.00 0.00 0.00 82 1015.7
20260505123056 13 287 0.0 1.6 0.00 0.00 0.00 87 1015.6
20260505121618 12 0 0.0 0.0 0.00 0.00 0.00 89 1015.3
20260505120045 10 0 0.0 0.0 0.00 0.00 0.00 92 1015.3
20260505114551 10 0 0.0 1.6 0.00 0.00 0.00 91 1015.2